Погода Мирный

Погода Мирный : погода сейчас, прогноз погоды и архив. Всё, что Вы хотите узнать о погоде Мирный!

Хотите узнать прогноз погоды Мирный? Тогда Вам сюда: Погода Мирный

Поиск расширенной информации на нашем сайте:

Другие новости

Новости СМИ2

Главная страница сайта

Новости сайта

02.10.2013

Напоминаем, что на нашем новом сайте вы можете получить высокодетализированные прогнозы погоды по пунктам России, СНГ и мира (включающие важные для авиации метеовеличины, такие как направление и скорость ветра, видимость, явления погоды, количество и форма облачности, нижняя и верхняя граница облачности), а также ознакомиться с разнообразными материалами по авиационной метеорологии и подборкой полезных ссылок на эту тему.

Сайт Метеоцентр.Азия посвящён разработке технологий оптимизации авиаметеорологического обслуживания, включая проектирование и перспективное создание нескольких автоматизированных авиаметеорологических систем:
- система выпуска высокодетальных прогностических карт явлений погоды для нижнего воздушного пространства по России и ближнему зарубежью;
- система верификации прогнозов TAF (выпускаемых синоптиками официальных АМСГ РФ и ближнего зарубежья) и AUTOTAF (выпускаемых сайтом Метеоцентр.Азия) - выявление ошибок, онлайн-сопоставление с фактической погодой METAR, автоматическое внесение коррективов в прогнозы при резком отклонении фактической погоды от прогноза, подсчёт оправдываемости прогнозов по элементам и в целом;
- система обработки, анализа и отображения авиаметеорологической информации для применения провайдерами метеорологической информации.


Погода Мирный - сегодня

Время (UTC), дата Ветер
(°,м/с) 
Видим.   Явления Облачность Т
(°С)
Тd
(°С)
f(%) Тe
(°С)
Pmin
(гПа)
dP
(гПа)
Po
(мм)
O2
(г/м3)
Тmin Tmax R s Состояние
почвы
18 14.01.17 030 (СВ) 20000 м    10/0 верхняя 
[Cs]
-31.3 -35 70 -37  1046.1  -0.3  746  342           
21 14.01.17 030 (СВ) 20000 м    8/0 верхняя 
[Ci fib]
-31.9 -35.7 69 -38  1045.2  -0.8  746  342           
00 15.01.17 030 (СВ) 20000 м  слаб. снег  10/5 210 м верхняя 
[St|Cs]
-32.3 -35.9 70 -38  1044.7  -0.5  745  342  -32.6    0.0  29  равномерный
сухой снег
100% 
03 15.01.17 040 (СВ) 10 км  {снег}  10/0 верхняя 
[Ci fib]
-33.3 -37 69 -39  1044.7  -0.4  745  344  -33.9         
06 15.01.17 070 (В) 20000 м  {снег}  10/0 средняя, верхняя 
[Ac trans|Cs]
-32.4 -36.2 69 -36  1043.8  -0.5  744  342           
09 15.01.17 040 (СВ) 20000 м    10/0 средняя, верхняя 
[Ac trans|Ci fib]
-32.7 -36.5 69 -34  1044.2  744  343           
12 15.01.17 020 (С) 20000 м    10/0 средняя, верхняя 
[Ac trans|Ci fib]
-33.4 -37 70 -37  1043.8  -0.4  744  344    -32.3  0.0     
15 15.01.17 020 (С) 20000 м    10/0 средняя, верхняя 
[Ac trans|Cs]
-33.4 -37 70 -37  1043  -0.7  744  343           
18 15.01.17 040 (СВ) 20000 м    10/0 средняя, верхняя 
[Ac trans|Ci fib]
-35.4 -39 70 -40  1043  -0.4  743  346           
21 15.01.17 030 (СВ) 20000 м    10/0 верхняя 
[Ci fib]
-36.7 -40.8 66 -38  1042.7  -0.7  743  348           
00 16.01.17 030 (СВ) 20000 м    10/3 300 м верхняя 
[St|Ci fib]
-37.2 -41.5 64 -38  1042.7  743  349  -37.3      29  равномерный
сухой снег
100% 
03 16.01.17 тихо ()   20000 м    10/0 средняя, верхняя 
[Ac trans|Ci fib]
-36.9 -41.1 65 -37  1042.7  743  348  -38.7         
06 16.01.17 230 (ЮЗ) 4000 м  дымка  10/6 500 м верхняя 
[Sc|Ci fib]
-35 -39.4 64 -36  1041.6  -0.7  742  345           
09 16.01.17 тихо ()   20000 м    10/4 600 м верхняя 
[Sc|Ci fib]
-37.4 -41.5 66 -37  1042.1  0.1  742  349           
12 16.01.17 тихо ()   10 км    10/3 300 м верхняя 
[St|Ci fib]
-37.8 -41.9 65 -38  1042.7  0.3  743  349    -33.8       
15 16.01.17 тихо ()   4000 м  дымка  10/3 300 м верхняя 
[St|Ci fib]
-38.2 -42.3 65 -38  1042.2  -0.5  742  350           
18 16.01.17 тихо ()   2000 м  дымка  10/4 270 м верхняя 
[St|Ci fib]
-39.1 -43.2 65 -39  1041.9  -0.5  742  351           
21 16.01.17 240 (ЮЗ) 2000 м  дымка  10/4 240 м верхняя 
[St|Ci fib]
-38.8 -43.2 63 -40  1041.7  -0.2  742  350           
00 17.01.17 240 (ЮЗ) 4000 м  дымка  10/5 300 м верхняя 
[St|Ci fib]
-39.7 -43.6 66 -41  1042.1  0.2  742  352  -40      29  равномерный
сухой снег
100% 
03 17.01.17 240 (ЮЗ) 2000 м  дымка  10/6 270 м верхняя 
[St|Cs]
-38.5 -42.7 64 -43  1042.1  0.2  742  350           
06 17.01.17 260 (З) 4000 м  дымка  5/1 300 м верхняя 
[St|Ci fib]
-35 -39.4 64 -36  1040.5  -0.7  741  345           
09 17.01.17 260 (З) 10 км    5/0 верхняя 
[Cs]
-34.6 -38.8 66 -41  1040.8  0.3  742  344           
12 17.01.17 250 (З) 20000 м    5/0 верхняя 
[Cs]
-35.3 -39.8 63 -40  1040.9  0.1  742  345    -34.5       
15 17.01.17 240 (ЮЗ) 20000 м    5/0 верхняя 
[Cs]
-35.8 -40.1 64 -40  1040.9  -0.2  742  346           
18 17.01.17 240 (ЮЗ) 20000 м    5/0 верхняя 
[Cs]
-36.1 -40.4 64 -40  1040.3  -0.5  741  346           
Время (UTC), дата Ветер
(°,м/с) 
Видим.   Явления Облачность Т
(°С)
Тd
(°С)
f(%) Тe
(°С)
Pmin
(гПа)
dP
(гПа)
Po
(мм)
O2
(г/м3)
Тmin Tmax R s Состояние
почвы

Для получения пояснительной информации подведите курсор к названию столбца.

ПОГОДА Мирный - архив

Всё, что Вы хотите узнать о погоде Мирный - удобно и подробно!

Выберите нужную дату (начиная с 1 января 2015* года) и нажмите кнопку "Найти".
Будут отображены архивные сводки погоды по пункту Мирный, начиная с указанной даты.


Отображать данные в формате CSV (для использования в таблицах Excel)


Внимание! Наш архив погоды предназначен исключительно для личного некоммерческого использования в познавательных целях. Если Вам необходимы официальные справки о состоянии погоды (для производственных, юридических, коммерческих и т.п. целей), обращайтесь в органы Росгидромета.

*Примечание: данная дата относится к архиву по метеостанциям СССР (Россия, СНГ, Балтия).
Архив по метеостанциям Зарубежной Европы и Азии (кроме Китая) хранится 10 дней, по другим регионам земного шара (Китай, Африка, Америка, Австралия, Океания) - 1 день.

Мирный - район местоположения метеостанции


Название, широта, долгота, высота метеостанции:
Мирный 62.5°ш. 114.0°д. 352 м над ур. моря [Российская Федерация]

Дополнительная информация

В oтличие oт бoльшинства пoгoдных сайтoв мы публикуем пoдрoбную метеoинфoрмацию в детальнoм прoфессиoнальнoм фoрмате.

Характеристики температуры и влажнoсти вoздуха измеряются на высoте 2 м в тени вдали oт зданий и деревьев.
Скoрoсть ветра измеряется на высoте 10 м (на урoвне рoста челoвека скoрoсть ветра ниже в 1.5-2 раза). Если метеoстанция нахoдится в гoрoде или в лесу, тo скoрoсть ветра занижена на 2-4 м/с пo сравнению с oткрытым местoм. Скoрoсть ветра над акватoриями крупных рек и oзёр, а также на вершинах хoлмoв на 2-5 м/с выше, чем в oбычных услoвиях.
Атмoсфернoе давление в разных тoчках местнoсти мoжет значительнo oтличаться oт давления на метеoстанции, в зависимoсти oт услoвий рельефа (при пoдъёме на 10 м давление пoнижается примернo на 1 мм рт.ст.).